Scottsbluff, NE

9:37 PM MST on November 19, 2019 (GMT -0700)
Heilig

Weather History for KBFF - September, 2019

Change the Weather History Date:

Wednesday, September 25, 2019

  Actual Average Record
Temperature  
Mean Temperature 60 °F -  
Max Temperature 75 °F 75 °F 93 °F (1898)
Min Temperature 46 °F 41 °F 14 °F (1926)
Degree Days  
Heating Degree Days 4    
Growing Degree Days 10 (Base 50)    
Moisture  
Dew Point 43 °F    
Average Humidity 54    
Maximum Humidity 89    
Minimum Humidity 28    
Precipitation  
Precipitation 0.00 in - - ()
Sea Level Pressure  
Sea Level Pressure 29.95 in    
Wind  
Wind Speed 9 mph (ENE)    
Max Wind Speed 22 mph    
Max Gust Speed 24 mph    
Visibility 10 miles    
Events      
Averages and records for this station are not official NWS values.
T = Trace of Precipitation, MM = Missing Value Source: NWS Daily Summary

Daily Weather History Graph

Daily Weather History Graph

Search for Another Location

Airport or City:

Astronomy

Sep. 25, 2019 Rise Set
Actual Time 6:44 AM MDT 6:46 PM MDT
Civil Twilight 6:16 AM MDT 7:14 PM MDT
Nautical Twilight 5:44 AM MDT 7:46 PM MDT
Astronomical Twilight 5:11 AM MDT 8:19 PM MDT
Moon 2:36 AM MDT (9/25) 5:24 PM MDT (9/25)
Length of Visible Light 12h 57m
Length of Day
12h 01m
Waning Crescent, 13% of the Moon is Illuminated
Sep 25
Waning Crescent
Sep 28
New
Oct 5
First Quarter
Oct 13
Full
Oct 21
Last Quarter

Hourly Weather History & Observations

Time (MDT) Temp. Windchill Dew Point Humidity Pressure Visibility Wind Dir Wind Speed Gust Speed Precip Events Conditions
12:53 AM 61.0 °F - 43.0 °F 52% 29.80 in 10.0 mi NE 15.0 mph - N/A   Clear
1:53 AM 57.9 °F - 44.1 °F 60% 29.83 in 10.0 mi North 11.5 mph - N/A   Clear
2:53 AM 55.0 °F - 44.1 °F 67% 29.86 in 10.0 mi WNW 6.9 mph - N/A   Clear
3:53 AM 52.0 °F - 44.1 °F 74% 29.88 in 10.0 mi West 5.8 mph - N/A   Clear
4:53 AM 50.0 °F - 43.0 °F 77% 29.90 in 10.0 mi NNW 5.8 mph - N/A   Partly Cloudy
5:53 AM 46.0 °F 44.8 °F 42.1 °F 86% 29.92 in 10.0 mi West 3.5 mph - N/A   Clear
6:53 AM 46.0 °F 42.5 °F 43.0 °F 89% 29.95 in 10.0 mi NW 6.9 mph - N/A   Clear
7:53 AM 53.1 °F - 44.1 °F 71% 29.97 in 10.0 mi NNW 5.8 mph - N/A   Clear
8:53 AM 59.0 °F - 45.0 °F 60% 29.98 in 10.0 mi Calm Calm - N/A   Clear
9:53 AM 62.1 °F - 44.1 °F 52% 29.97 in 10.0 mi SSE 8.1 mph - N/A   Overcast
10:53 AM 66.0 °F - 42.1 °F 42% 29.97 in 10.0 mi SE 6.9 mph - N/A   Clear
11:53 AM 68.0 °F - 42.1 °F 39% 29.95 in 10.0 mi Variable 4.6 mph - N/A   Clear
12:53 PM 73.0 °F - 45.0 °F 37% 29.91 in 10.0 mi SE 11.5 mph 16.1 mph N/A   Clear
1:53 PM 73.9 °F - 45.0 °F 35% 29.88 in 10.0 mi East 8.1 mph - N/A   Partly Cloudy
2:53 PM 75.0 °F - 45.0 °F 34% 29.87 in 10.0 mi East 6.9 mph - N/A   Mostly Cloudy
3:53 PM 73.0 °F - 45.0 °F 37% 29.88 in 10.0 mi ENE 11.5 mph - N/A   Overcast
4:53 PM 70.0 °F - 42.1 °F 36% 29.91 in 10.0 mi ENE 19.6 mph 24.2 mph N/A   Partly Cloudy
5:53 PM 63.0 °F - 42.1 °F 46% 29.97 in 10.0 mi ENE 21.9 mph - N/A   Clear
6:53 PM 59.0 °F - 41.0 °F 51% 30.02 in 10.0 mi ENE 10.4 mph - N/A   Clear
7:53 PM 55.9 °F - 39.9 °F 55% 30.05 in 10.0 mi East 9.2 mph - N/A   Partly Cloudy
8:53 PM 54.0 °F - 39.0 °F 57% 30.06 in 10.0 mi SE 4.6 mph - N/A   Mostly Cloudy
9:53 PM 55.0 °F - 39.9 °F 57% 30.07 in 10.0 mi Calm Calm - N/A   Mostly Cloudy
10:53 PM 55.0 °F - 39.9 °F 57% 30.07 in 10.0 mi Calm Calm - N/A   Overcast
11:53 PM 54.0 °F - 39.9 °F 59% 30.05 in 10.0 mi Calm Calm - N/A   Overcast